Regional Weather Roundup
Issued by NWS State College, PA

Home | Current Version | Previous Version | Text Only | Print | Product List | Glossary On
Versions: 1 2 3 4 5 6 7 8 9 10 11 12 13 14 15 16 17 18 19 20 21 22 23 24 25 26 27 28 29 30 31 32 33 34 35 36 37 38 39 40 41 42 43 44 45 46 47 48 49 50
000
ASUS41 KCTP 021310
RWRCTP

REGIONAL WEATHER ROUNDUP
NATIONAL WEATHER SERVICE STATE COLLEGE PA
900 AM EDT TUE JUN 02 2015

Note: "fair" indicates few or no clouds below 12,000 feet with no
significant weather and/or obstructions to visibility.

* = STATION THAT DOES NOT REPORT PRECIPITATION /E.G. RAIN...SNOW...ETC/
    THUNDER OR FOG.

PAZ002>004-007>009-013>016-020>023-029>032-021400-
WESTERN PENNSYLVANIA

CITY           SKY/WX    TMP DP  RH WIND       PRES   REMARKS
ERIE           CLOUDY    54  47  77 NE10      30.19R
MEADVILLE      CLOUDY    51  47  86 NE7       30.17R
FRANKLIN*      CLOUDY    52  45  76 NE8       30.16S
NEW CASTLE     CLOUDY    54  50  86 N6        30.16R
BEAVER COUNTY  CLOUDY    54  50  87 N6        30.15R
BUTLER*        CLOUDY    54  48  82 NE8       30.16R
PITTSBURGH INT CLOUDY    55  49  80 N9        30.13R
PITTSBURGH     CLOUDY    53  48  83 N6        30.12R
INDIANA*       CLOUDY    55  52  88 VRB5      30.16R
LATROBE          N/A     54  54 100 NE7       30.13R FOG
WASHINGTON CO* CLOUDY    54  48  82 NE6       30.14R
$$

PAZ004>006-010>012-017>019-024>028-033>037-041-042-045-046-049>053-021400-
CENTRAL PENNSYLVANIA

CITY           SKY/WX    TMP DP  RH WIND       PRES   REMARKS
BRADFORD       CLOUDY    48  46  93 NE6       30.16R FOG
DUBOIS         CLOUDY    54  49  83 NE6       30.14R
CLEARFIELD     CLOUDY    54  49  83 NE9       30.14R
JOHNSTOWN      FOG       52  51  97 VRB5      30.10R VSB 1/2
ALTOONA        LGT RAIN  55  53  93 N8        30.11R
STATE COLLEGE  DRIZZLE   54  52  94 NE9       30.12R
WILLIAMSPORT   LGT RAIN  57  53  86 CALM      30.12R
SELINSGROVE    LGT RAIN  57  54  89 NE6       30.13R
FT INDIANTOWN  CLOUDY    54  52  94 E2        30.12R
CAPITAL CITY   HVY RAIN  54  52  93 E7        30.12R FOG
HARRISBURG     HVY RAIN  54  51  90 E5        30.12R FOG
YORK           LGT RAIN  54  53  97 NE7       30.11R FOG
$$

PAZ038>040-043-044-047-048-054-055-060>062-067>071-021400-
EASTERN PENNSYLVANIA

CITY           SKY/WX    TMP DP  RH WIND       PRES   REMARKS
SCRANTON       LGT RAIN  53  49  86 N6        30.13R
MOUNT POCONO   LGT RAIN  48  45  89 E6        30.10S
ALLENTOWN      LGT RAIN  51  49  92 NE7       30.14R FOG
QUAKERTOWN*    CLOUDY    50  50 100 NE5       30.13S
READING        LGT RAIN  52  51  97 CALM      30.11S FOG
LANCASTER      CLOUDY    53  50  89 E12       30.10S
COATESVILLE    LGT RAIN  50  50 100 E12G23    30.11S
POTTSTOWN      CLOUDY    51  51 100 NE7       30.14S
BLUE BELL      CLOUDY    52  52 100 NE6       30.12S
DOYLESTOWN     LGT RAIN  49  49 100 NE8       30.12R FOG
WILLOW GROVE   NOT AVBL
NORTH PHILA    CLOUDY    53  48  83 NE9       30.14R HAZE
PHILADELPHIA   DRIZZLE   53  50  89 NE14      30.12S FOG
$$


USA.gov is the U.S. government's official web portal to all federal, state and local government web resources and services.